DA2PK Weather Reports


time (UTC)temp
C
wind
direction
speed
KPH
gust
KPH
rain 1hr
cm
rain 24hr
cm
rain mn
cm
humidity
%
barometer
mb
20260506132021 10 41 3.2 11.3 0.03 3.43 3.35 90 1008.2
20260506131022 10 53 6.4 19.3 0.05 3.43 3.35 89 1008.2
20260506130021 10 55 3.2 8.0 0.05 3.43 3.35 91 1008.2
20260506125022 10 90 3.2 6.4 0.05 3.40 3.33 90 1008.1
20260506124043 10 14 4.8 14.5 0.08 3.40 3.33 90 1008.1
20260506123021 10 23 4.8 9.7 0.08 3.40 3.33 90 1008.0
20260506122022 10 311 3.2 8.0 0.08 3.40 3.33 91 1008.1
20260506121021 10 76 3.2 6.4 0.08 3.38 3.30 91 1008.0
20260506120022 10 187 1.6 6.4 0.10 3.38 3.30 90 1007.9
20260506115043 10 68 3.2 8.0 0.10 3.35 3.28 90 1007.7
20260506114041 10 217 3.2 9.7 0.13 3.35 3.25 91 1007.8
20260506113022 10 145 1.6 8.0 0.18 3.33 3.25 90 1007.8
20260506112022 10 74 3.2 12.9 0.20 3.33 3.25 90 1007.7
20260506111023 10 137 3.2 9.7 0.23 3.30 3.23 90 1007.6
20260506110022 10 217 1.6 8.0 0.23 3.28 3.20 90 1007.7
20260506105021 10 40 3.2 12.9 0.25 3.25 3.17 91 1007.6
20260506104022 10 58 1.6 9.7 0.23 3.20 3.12 91 1007.6
20260506103022 10 11 3.2 9.7 0.20 3.15 3.07 91 1007.5
20260506102022 10 64 3.2 6.4 0.15 3.10 3.02 91 1007.4
20260506101021 10 85 3.2 9.7 0.13 3.07 3.00 90 1007.3
20260506100044 10 71 3.2 9.7 0.10 3.05 2.97 92 1007.2
20260506095021 10 40 3.2 14.5 0.05 3.00 2.92 91 1007.2
20260506094042 10 31 3.2 8.0 0.05 3.00 2.90 92 1007.0
20260506093021 10 56 4.8 11.3 0.05 2.97 2.87 92 1007.0
20260506092025 10 36 3.2 9.7 0.08 2.97 2.87 92 1006.9
20260506091022 10 130 1.6 6.4 0.10 2.97 2.87 93 1006.7
20260506090022 10 75 3.2 6.4 0.13 2.97 2.87 92 1006.7
20260506085023 10 37 3.2 9.7 0.20 3.00 2.87 92 1006.5
20260506084022 10 42 4.8 9.7 0.28 3.00 2.84 93 1006.5
20260506083045 10 55 4.8 14.5 0.33 3.00 2.82 93 1006.5
20260506082022 10 52 4.8 11.3 0.36 2.97 2.82 93 1006.5
20260506081021 10 46 3.2 11.3 0.36 2.95 2.77 93 1006.5
20260506073023 10 9 1.6 4.8 0.25 2.67 2.49 94 1006.4
20260506072023 10 134 1.6 4.8 0.25 2.62 2.46 94 1006.4
20260506071023 10 81 1.6 9.7 0.28 2.59 2.44 94 1006.3
20260506062021 10 17 1.6 9.7 0.23 2.34 2.18 94 1006.2
20260506061022 10 44 3.2 9.7 0.23 2.29 2.13 94 1006.1
20260506051047 10 101 1.6 6.4 0.25 2.08 1.93 94 1005.9
20260506045023 10 79 3.2 6.4 0.25 2.03 1.83 94 1005.8
20260506044023 10 44 3.2 6.4 0.28 2.11 1.78 94 1005.9
20260506043023 10 70 3.2 11.3 0.28 2.13 1.75 94 1005.8
20260506042022 10 80 3.2 12.9 0.25 2.13 1.70 94 1005.8
20260506041043 10 120 1.6 8.0 0.25 2.24 1.65 94 1005.8
20260506040022 10 93 3.2 9.7 0.25 2.26 1.60 94 1005.9
20260506035023 10 75 1.6 6.4 0.25 2.24 1.55 94 1005.9
20260506034022 10 54 3.2 9.7 0.25 2.21 1.50 94 1005.9
20260506033022 10 68 3.2 11.3 0.30 2.18 1.47 94 1005.8
20260506032023 10 48 3.2 9.7 0.36 2.21 1.45 94 1006.0
20260506031021 10 37 3.2 8.0 0.41 2.21 1.40 94 1006.0
20260506030022 10 36 1.6 8.0 0.43 2.18 1.37 94 1006.1
20260506025023 10 250 1.6 4.8 0.43 2.13 1.32 94 1006.1
20260506024021 10 182 3.2 8.0 0.43 2.08 1.27 94 1006.1
20260506023021 10 224 3.2 8.0 0.38 2.01 1.17 93 1006.2
20260506022021 10 247 1.6 6.4 0.33 1.91 1.09 93 1006.3
20260506021024 10 22 3.2 11.3 0.28 1.85 0.99 93 1006.3
20260506020023 10 174 3.2 6.4 0.25 1.80 0.94 93 1006.4
20260506015022 10 185 3.2 6.4 0.23 1.75 0.89 93 1006.3
20260506014023 10 346 1.6 8.0 0.23 1.70 0.84 93 1006.4
20260506013023 10 21 4.8 9.7 0.23 1.65 0.81 93 1006.5
20260506012043 10 360 3.2 9.7 0.23 1.60 0.76 93 1006.5
20260506011023 11 169 3.2 8.0 0.25 1.57 0.71 93 1006.5
20260506010022 11 187 3.2 9.7 0.28 1.55 0.69 93 1006.7
20260506005041 11 161 3.2 8.0 0.30 1.50 0.66 93 1006.7
20260506004024 11 98 3.2 8.0 0.30 1.47 0.61 93 1006.8
20260506003021 11 348 4.8 11.3 0.33 1.45 0.58 93 1006.9
20260506002042 11 106 3.2 8.0 0.28 1.40 0.53 93 1007.0
20260506001042 11 3 1.6 6.4 0.25 1.32 0.48 92 1007.0
20260506000023 11 187 1.6 6.4 0.23 1.27 0.41 92 1007.1
20260505235022 11 189 1.6 4.8 0.20 1.19 0.33 92 1007.3
20260505234042 11 198 1.6 3.2 0.20 1.17 0.30 92 1007.3
20260505233023 11 37 1.6 6.4 0.18 1.12 0.25 92 1007.4
20260505232022 11 94 1.6 9.7 0.20 1.09 0.23 92 1007.4
20260505231023 11 26 1.6 6.4 0.20 1.07 0.20 92 1007.4
20260505230024 11 133 1.6 8.0 0.18 1.04 0.18 92 1007.5
20260505225024 11 29 3.2 9.7 0.15 1.02 0.15 92 1007.5
20260505224024 11 340 1.6 8.0 0.15 0.99 0.13 91 1007.6
20260505223024 11 51 3.2 6.4 0.13 0.94 0.08 91 1007.7
20260505222022 11 187 1.6 8.0 0.10 0.91 0.05 91 1007.6
20260505221044 11 27 3.2 8.0 0.10 0.89 0.03 91 1007.7
20260505220042 11 144 1.6 4.8 0.08 0.86 0.86 91 1007.8
20260505215024 11 44 3.2 11.3 0.08 0.86 0.86 91 1007.8
20260505214042 11 172 1.6 4.8 0.05 0.84 0.84 91 1007.9
20260505213025 11 50 1.6 6.4 0.03 0.81 0.81 91 1008.0
20260505212102 11 31 3.2 11.3 0.03 0.81 0.81 90 1008.1
20260505211023 11 110 3.2 6.4 0.00 0.81 0.81 90 1008.2
20260505210022 11 54 3.2 11.3 0.00 0.79 0.79 90 1008.2
20260505205023 11 34 3.2 8.0 0.00 0.79 0.79 90 1008.2
20260505204022 11 41 4.8 12.9 0.00 0.79 0.79 89 1008.3
20260505203023 11 49 3.2 14.5 0.00 0.79 0.79 89 1008.3
20260505202024 11 61 3.2 8.0 0.00 0.79 0.79 89 1008.3
20260505201023 11 57 3.2 14.5 0.00 0.79 0.79 89 1008.3
20260505200024 11 59 3.2 9.7 0.00 0.79 0.79 89 1008.3
20260505195023 11 59 3.2 9.7 0.00 0.79 0.79 88 1008.3
20260505194022 11 114 1.6 8.0 0.00 0.79 0.79 88 1008.2
20260505193103 11 35 3.2 9.7 0.00 0.79 0.79 88 1008.3
20260505192024 11 48 4.8 14.5 0.00 0.79 0.79 88 1008.2
20260505191024 11 69 3.2 8.0 0.00 0.81 0.79 88 1008.1
20260505190023 12 35 3.2 9.7 0.00 0.81 0.79 87 1008.1
20260505185022 12 45 3.2 9.7 0.00 0.81 0.79 88 1008.1
20260505184023 12 61 3.2 8.0 0.00 0.81 0.79 87 1008.1
20260505183022 12 41 3.2 6.4 0.00 0.81 0.79 88 1008.0
20260505182023 12 75 1.6 6.4 0.00 0.81 0.79 87 1008.0
20260505181016 12 53 1.6 8.0 0.00 0.81 0.79 87 1008.0
20260505180043 12 82 3.2 9.7 0.00 0.81 0.79 87 1008.2
20260505175022 12 29 1.6 8.0 0.00 0.81 0.79 88 1008.2
20260505174022 12 56 4.8 9.7 0.00 0.81 0.79 87 1008.2
20260505173023 12 47 3.2 11.3 0.00 0.81 0.79 86 1008.3
20260505172042 12 37 1.6 6.4 0.00 0.84 0.79 87 1008.2
20260505171023 12 58 3.2 12.9 0.00 0.84 0.79 87 1008.2
20260505170022 12 73 3.2 6.4 0.00 0.84 0.79 87 1008.2
20260505165023 12 47 3.2 12.9 0.00 0.84 0.79 87 1008.2
20260505164022 12 96 1.6 6.4 0.00 0.84 0.79 86 1008.4
20260505163026 12 92 3.2 9.7 0.00 0.84 0.79 87 1008.3
20260505162023 12 40 3.2 11.3 0.00 0.84 0.79 86 1008.4
20260505161022 12 76 3.2 12.9 0.00 0.84 0.79 86 1008.3
20260505153043 12 25 3.2 9.7 0.00 0.84 0.79 86 1008.6
20260505152023 12 47 3.2 9.7 0.00 0.84 0.79 87 1008.8
20260505151023 12 97 3.2 8.0 0.00 0.84 0.79 86 1008.8
20260505150109 12 138 3.2 8.0 0.00 0.84 0.79 86 1008.9